星链-5656 (STARLINK-5656 )

导读

STARLINK-5656是美国太空探索技术公司(SpaceX)星链星座中的一颗卫星,于2023年2月2日发射入轨。星链项目旨在构建全球卫星互联网星座,为全球偏远地区、海洋空域等提供低延迟、高速率的宽带互联网接入服务,这颗卫星入轨后进一步扩充了星链星座的在轨运行规模。

基本信息
目录编号:
55451
目录名称:
STARLINK-5656
国际标识:
2023-015C
轨道中心:
EARTH
卫星名称:
星链-5656
卫星全名:
星链-5656 (STARLINK-5656 )
卫星状态:
在轨 (已飞行1317 天)
发射日期:
2023-02-02 UTC
国别 :
美国 (US)
星等 :
--
该卫星已列入 空间交会检测服务 Space Conjunction Data Service (SCDS) ,当前飞行风险评估等级: 无高风险
轨道信息
数据来源 国际轨道数据
星历时间: 2026-09-11T15:03:50+0800
10小时前
查看轨道信息
半长轴: 6861.194km
偏心率: 0.0002242
轨道倾角: 43.005°
近地点辐角 287.683°
升交点赤经 0.888°
平近点角 72.377°
近地点: 481.518km
远地点: 484.596km
周期: 94.267分钟
每日圈数: 15.275774
详细信息
固有亮度:
5
最大亮度:
2.5
卫星平台:
Starlink v1.5
覆盖范围:
全球
运营商:
太空探索技术公司
运营商所在国:
美国
制造商(研发单位):
太空探索技术公司
制造商所在国:
美国
使用方式:
暂无
卫星简介
星链(Starlink)计划是由太空探索技术公司(SpaceX)提出的一个巨型低轨卫星互联网星座项目,计划在2019年至2024年间在太空搭建由约1.2万颗卫星组成的“星链”网络,其中1584颗将部署在地球上空550千米处的近地轨道,并从2020年开始工作。该卫星仍在工作。
2D轨道图
3D轨道图
轨道高度分析图
轨道倾角分析图
轨道综合分析图
查看轨道综合分析图
交会数据列表
事件ID 空间交会对象 最接近时刻(TCA) 交会距离 交会风险概率(CRP) 交会风险指数(CRI) 操作
CDM_260913-120405-545106-399921
2026-09-13T
12:04:22+0000
1.179 km
极远距离
4.684425E-6 低风险 0.48
CDM_260911-160605-545106-686022
2026-09-11T
16:06:35+0000
1.337 km
极远距离
2.118667E-6 低风险 0.42
CDM_260913-151705-545106-376421
2026-09-13T
15:17:43+0000
2.032 km
极远距离
1.637511E-6 低风险 0.39
CDM_260913-103005-545106-399921
2026-09-13T
10:30:12+0000
1.733 km
极远距离
1.435059E-6 低风险 0.38
CDM_260913-155905-545106-399921
2026-09-13T
15:59:44+0000
1.811 km
极远距离
1.279617E-6 低风险 0.37
CDM_260913-173305-545106-399921
2026-09-13T
17:33:54+0000
1.823 km
极远距离
1.258579E-6 低风险 0.37
CDM_260911-213605-545106-686021
2026-09-11T
21:36:07+0000
1.672 km
极远距离
1.109598E-6 低风险 0.36
CDM_260910-213205-545105-706121
2026-09-10T
21:32:45+0000
2.999 km
极远距离
1.067532E-6 低风险 0.36
CDM_260911-174005-545106-686022
2026-09-11T
17:40:44+0000
1.755 km
极远距离
9.787485E-7 极低风险 0.35
CDM_260913-222105-545106-376421
2026-09-13T
22:21:24+0000
2.972 km
极远距离
8.478359E-7 极低风险 0.34
与全量物体交会距离演化趋势
与全量物体交会风险概率演化趋势